This is the latest recevied weather packets stored in our database for station/object AA0PB. If no packets are shown the sender has not sent any weather packets the latest 10 day(s).
| Time | Temp. | Humidity | Pressure | Rain* | Wind** | Luminosity | Snow |
|---|---|---|---|---|---|---|---|
| 1777818119 | 13.89° C | 89% | 1012.5 hPa | 0 mm | - | 56 W/m² | - |
| 1777817816 | 13.33° C | 91% | 1012.3 hPa | 0 mm | - | 41 W/m² | - |
| 1777817514 | 12.78° C | 94% | 1012.4 hPa | 0 mm | - | 34 W/m² | - |
| 1777817210 | 12.78° C | 96% | 1012.4 hPa | 0 mm | - | 42 W/m² | - |
| 1777816908 | 11.67° C | 98% | 1012.4 hPa | 0 mm | - | 38 W/m² | - |
| 1777816604 | 11.67° C | 99% | 1012.2 hPa | 0 mm | - | 34 W/m² | - |
| 1777816301 | 11.67° C | 99% | 1012.4 hPa | 0 mm | - | 26 W/m² | - |
| 1777815998 | 11.11° C | 99% | 1012.3 hPa | 0 mm | - | 30 W/m² | - |
| 1777815696 | 10.56° C | 99% | 1012 hPa | 0 mm | - | 28 W/m² | - |
| 1777815393 | 10.56° C | 99% | 1012.4 hPa | 0 mm | - | 23 W/m² | - |
| 1777815090 | 10.56° C | 99% | 1012.2 hPa | 0 mm | - | 20 W/m² | - |
| 1777814786 | 10.56° C | 99% | 1012.1 hPa | 0 mm | - | 16 W/m² | - |
| 1777814483 | 10° C | 99% | 1012.2 hPa | 0 mm | - | 12 W/m² | - |
| 1777814180 | 10° C | 99% | 1012.2 hPa | 0 mm | - | 10 W/m² | - |
| 1777813877 | 10° C | 99% | 1012.2 hPa | 0 mm | - | 7 W/m² | - |
| 1777813575 | 10° C | 99% | 1011.9 hPa | 0 mm | - | 5 W/m² | - |
| 1777813272 | 10° C | 99% | 1012.1 hPa | 0 mm | - | 3 W/m² | - |
| 1777812969 | 10° C | 99% | 1012.2 hPa | 0 mm | - | 2 W/m² | - |
| 1777812667 | 10° C | 99% | 1012.1 hPa | 0 mm | - | 1 W/m² | - |
| 1777812363 | 10° C | 99% | 1012.2 hPa | 0 mm | - | 1 W/m² | - |
| 1777812062 | 10° C | 99% | 1012.1 hPa | 0 mm | - | 0 W/m² | - |
| 1777811760 | 10° C | 99% | 1012.3 hPa | 0 mm | - | 0 W/m² | - |
| 1777811456 | 10° C | 99% | 1012.3 hPa | 0 mm | - | 0 W/m² | - |
| 1777811152 | 10° C | 99% | 1012.1 hPa | 0 mm | - | 0 W/m² | - |
| 1777810850 | 10° C | 99% | 1012.3 hPa | 0 mm | - | 0 W/m² | - |
* Rain latest hour (hover to see other rain measurements)
** Current wind speed in m/s (hover to see current wind gust speed)